Home > Weather > Myrtle Beach > Past weeks

Flag for USA Weather for the Past 2 Weeks in Myrtle Beach, South Carolina, USA

Now
73 °F

Scattered showers. Scattered clouds.


Feels Like: 76 °F
Forecast: 69 / 85 °F
Wind: 8 mph from Southwest

Location: Myrtle Beach Air Force Base

Current Time: Apr 28, 2016 at 8:22:42 PM

Latest Report: Apr 28, 2016 at 7:45 PM


Visibility: 8 mi

Pressure: 29.92 "Hg

Humidity: 69%

Dew Point: 63 °F

Location of Myrtle BeachLocation

Historic Weather in Myrtle Beach — Graph

°F

Myrtle Beach Temperature Yesterday

Maximum temperature yesterday: 82 °F (at 11:45 AM)
Minimum temperature yesterday: 66 °F (at 3:35 AM)
Average temperature yesterday: 72 °F

High & Low Weather Summary for the Past Weeks

 TemperatureHumidityPressure
High88 °F (Apr 19, 2:45 PM)78% (Apr 22, 11:35 PM)30.40 "Hg (Apr 22, 11:35 PM)
Low45 °F (Apr 17, 6:45 AM)16% (Apr 17, 4:45 PM)29.83 "Hg (Apr 23, 4:45 PM)
Average65 °F57%30.13 "Hg
* Reported Apr 13 6:45 PM — Apr 28 6:45 PM, Myrtle Beach, Weather by CustomWeather, © 2016

Note: Actual official high and low records may vary slightly from our data, if they occured in-between our weather recording intervals... More about our weather records

Advertising

Myrtle Beach Weather History for the Previous 24 Hours

Scroll right to see more
 ConditionsComfort  
Time TempWeatherWind HumidityBarometerVisibility
6:45 PM
Thu, Apr 28
73 °FScattered clouds.17 mph65%29.92 "Hg10 mi
5:45 PM79 °FSunny.16 mph58%29.90 "Hg10 mi
4:53 PM79 °FScattered clouds.14 mph61%29.91 "Hg10 mi
3:45 PM79 °FScattered clouds.15 mph61%29.94 "Hg10 mi
2:45 PM79 °FScattered clouds.14 mph61%29.95 "Hg10 mi
1:50 PM77 °FPartly sunny.12 mph65%29.97 "Hg10 mi
11:45 AM73 °FOvercast.5 mph74%29.99 "Hg10 mi
9:45 AM77 °FPartly sunny.13 mph61%30.00 "Hg10 mi
8:45 AM75 °FPartly sunny.8 mph65%29.98 "Hg10 mi
7:45 AM72 °FPartly sunny.7 mph73%29.97 "Hg10 mi
6:45 AM70 °FClear.6 mph78%29.95 "Hg10 mi
5:55 AM70 °FClear.8 mph78%29.93 "Hg10 mi
5:35 AM70 °FPassing clouds.8 mph78%29.93 "Hg10 mi
5:15 AM70 °FPassing clouds.9 mph78%29.93 "Hg10 mi
4:35 AM70 °FPassing clouds.8 mph78%29.92 "Hg10 mi
3:35 AM72 °FPassing clouds.7 mph73%29.92 "Hg10 mi
3:15 AM72 °FClear.7 mph73%29.92 "Hg10 mi
1:55 AM72 °FClear.7 mph73%29.93 "Hg10 mi
1:15 AM72 °FClear.7 mph69%29.94 "Hg10 mi
12:55 AM72 °FClear.8 mph69%29.93 "Hg10 mi
11:55 PM
Wed, Apr 27
72 °FClear.10 mph69%29.94 "Hg10 mi
11:35 PM72 °FClear.10 mph69%29.94 "Hg10 mi
10:55 PM72 °FClear.13 mph69%29.95 "Hg10 mi
9:45 PM72 °FClear.12 mph69%29.92 "Hg10 mi
8:45 PM73 °FSunny.8 mph65%29.89 "Hg10 mi
Weather by CustomWeather, © 2016

See weather overviewHow to use our weather pages